EW5655 Weather Reports


Display with metric or nautical units.
time (UTC)temp
F
wind
direction
speed
MPH
gust
MPH
rain 1hr
in
rain 24hr
in
rain mn
in
humidity
%
barometer
mb
20260904101551 71 239 1.0 3.0 0.00 0.00 0.00 79 1018.6
20260904101046 71 239 0.0 1.0 0.00 0.00 0.00 77 1018.7
20260904100545 72 239 0.0 2.0 0.00 0.00 0.00 73 1018.7
20260904100049 72 239 0.0 2.0 0.00 0.00 0.00 71 1018.7
20260904095543 72 239 0.0 4.0 0.00 0.00 0.00 72 1018.7
20260904095046 72 239 0.0 4.0 0.00 0.00 0.00 69 1018.7
20260904094558 72 265 0.0 8.0 0.00 0.00 0.00 67 1018.6
20260904094040 73 263 3.0 9.0 0.00 0.00 0.00 64 1018.7
20260904093539 73 222 3.0 9.0 0.00 0.00 0.00 63 1018.8
20260904093038 73 210 5.0 10.0 0.00 0.00 0.00 63 1018.7
20260904092536 74 195 6.0 10.0 0.00 0.00 0.00 62 1018.7
20260904092036 74 237 4.0 8.0 0.00 0.00 0.00 62 1018.6
20260904091536 74 215 4.0 7.0 0.00 0.00 0.00 62 1018.5
20260904091036 74 230 4.0 6.0 0.00 0.00 0.00 62 1018.5
20260904090534 74 194 2.0 7.0 0.00 0.00 0.00 62 1018.6
20260904090035 74 209 2.0 7.0 0.00 0.00 0.00 61 1018.8
20260904085534 74 186 2.0 5.0 0.00 0.00 0.00 61 1018.8
20260904085034 74 163 2.0 8.0 0.00 0.00 0.00 61 1018.8
20260904084533 74 193 2.0 8.0 0.00 0.00 0.00 61 1018.9
20260904084034 74 167 3.0 9.0 0.00 0.00 0.00 61 1019.0
20260904083532 75 164 4.0 9.0 0.00 0.00 0.00 60 1018.9
20260904083039 75 223 5.0 9.0 0.00 0.00 0.00 60 1018.8
20260904082532 75 179 4.0 10.0 0.00 0.00 0.00 59 1018.8
20260904082031 75 186 5.0 12.0 0.00 0.00 0.00 58 1018.8
20260904081529 75 196 7.0 13.0 0.00 0.00 0.00 57 1018.8
20260904081030 76 153 8.0 12.0 0.00 0.00 0.00 56 1018.9
20260904080531 76 196 6.0 13.0 0.00 0.00 0.00 55 1018.9
20260904080026 76 175 8.0 13.0 0.00 0.00 0.00 54 1018.9
20260904075525 76 157 7.0 11.0 0.00 0.00 0.00 54 1018.9
20260904075024 76 173 3.0 10.0 0.00 0.00 0.00 54 1018.9
20260904074522 77 186 6.0 10.0 0.00 0.00 0.00 54 1018.8
20260904074021 77 154 3.0 12.0 0.00 0.00 0.00 55 1018.7
20260904073521 77 225 6.0 12.0 0.00 0.00 0.00 55 1018.8
20260904073024 77 165 6.0 12.0 0.00 0.00 0.00 55 1018.7
20260904072520 77 223 5.0 12.0 0.00 0.00 0.00 56 1018.7
20260904072019 78 195 7.0 12.0 0.00 0.00 0.00 56 1018.5
20260904071516 78 203 4.0 13.0 0.00 0.00 0.00 55 1018.4
20260904071015 78 214 7.0 13.0 0.00 0.00 0.00 54 1018.3
20260904070517 79 209 4.0 16.0 0.00 0.00 0.00 54 1018.3
20260904070014 80 216 9.0 16.0 0.00 0.00 0.00 51 1018.2
20260904065512 80 215 5.0 9.0 0.00 0.00 0.00 46 1018.1
20260904065011 80 157 2.0 6.0 0.00 0.00 0.00 46 1017.9
20260904064514 80 167 3.0 11.0 0.00 0.00 0.00 46 1017.6
20260904064016 80 256 4.0 11.0 0.00 0.00 0.00 46 1017.5
20260904063508 80 222 2.0 9.0 0.00 0.00 0.00 45 1017.5
20260904063008 80 205 3.0 11.0 0.00 0.00 0.00 45 1017.5
20260904062507 81 265 5.0 11.0 0.00 0.00 0.00 44 1017.5
20260904062006 81 233 5.0 10.0 0.00 0.00 0.00 43 1017.5
20260904061505 80 221 3.0 6.0 0.00 0.00 0.00 43 1017.3
20260904061006 80 207 2.0 5.0 0.00 0.00 0.00 43 1017.2
20260904060503 80 247 2.0 5.0 0.00 0.00 0.00 42 1017.1
20260904060009 81 232 2.0 9.0 0.00 0.00 0.00 41 1017.2
20260904055503 80 218 3.0 9.0 0.00 0.00 0.00 41 1017.1
20260904055001 79 248 3.0 6.0 0.00 0.00 0.00 43 1017.1
20260904054634 80 43 0.0 2.0 0.00 0.00 0.00 41 1017.0
20260904054101 80 43 0.0 1.0 0.00 0.00 0.00 40 1016.9
20260904053600 80 43 0.0 1.0 0.00 0.00 0.00 40 1016.8
20260904053100 80 43 0.0 1.0 0.00 0.00 0.00 40 1016.8
20260904052600 80 43 0.0 4.0 0.00 0.00 0.00 39 1016.8
20260904052101 81 43 1.0 4.0 0.00 0.00 0.00 39 1016.9
20260904051601 81 43 0.0 2.0 0.00 0.00 0.00 39 1016.9
20260904051101 81 43 0.0 4.0 0.00 0.00 0.00 39 1016.9
20260904050559 81 42 1.0 4.0 0.00 0.00 0.00 39 1016.9
20260904050100 81 16 0.0 2.0 0.00 0.00 0.00 40 1016.9
20260904045600 81 16 0.0 2.0 0.00 0.00 0.00 41 1016.9
20260904045100 82 16 0.0 1.0 0.00 0.00 0.00 41 1017.0
20260904044559 82 16 0.0 1.0 0.00 0.00 0.00 40 1016.9
20260904044059 82 16 0.0 0.0 0.00 0.00 0.00 40 1016.9
20260904043559 82 16 0.0 1.0 0.00 0.00 0.00 39 1016.9
20260904043104 82 16 0.0 1.0 0.00 0.00 0.00 39 1016.9
20260904042558 82 16 0.0 0.0 0.00 0.00 0.00 40 1016.9
20260904042100 82 16 0.0 1.0 0.00 0.00 0.00 39 1016.9
20260904041605 82 16 0.0 1.0 0.00 0.00 0.00 39 1017.0
20260904041059 82 16 0.0 1.0 0.00 0.00 0.00 39 1016.9
20260904040558 82 16 0.0 1.0 0.00 0.00 0.00 40 1016.9
20260904040058 82 16 0.0 0.0 0.00 0.00 0.00 39 1016.8
20260904035559 83 16 0.0 0.0 0.00 0.00 0.00 39 1016.8
20260904035057 83 16 0.0 1.0 0.00 0.00 0.00 38 1016.8
20260904034557 83 16 0.0 2.0 0.00 0.00 0.00 38 1016.7
20260904034101 84 16 0.0 2.0 0.00 0.00 0.00 37 1016.7
20260904033559 84 16 0.0 1.0 0.00 0.00 0.00 37 1016.6
20260904033055 85 16 0.0 1.0 0.00 0.00 0.00 36 1016.6
20260904032557 85 16 0.0 2.0 0.00 0.00 0.00 35 1016.6
20260904032057 85 16 0.0 2.0 0.00 0.00 0.00 35 1016.5
20260904031558 85 16 0.0 3.0 0.00 0.00 0.00 36 1016.5
20260904031053 85 360 2.0 4.0 0.00 0.00 0.00 36 1016.5
20260904030553 85 357 1.0 3.0 0.00 0.00 0.00 36 1016.4
20260904030053 85 319 1.0 4.0 0.00 0.00 0.00 36 1016.3
20260904025553 86 308 0.0 3.0 0.00 0.00 0.00 35 1016.1
20260904025053 86 308 0.0 4.0 0.00 0.00 0.00 35 1016.1
20260904024557 86 276 1.0 4.0 0.00 0.00 0.00 35 1016.0
20260904024055 86 290 1.0 5.0 0.00 0.00 0.00 34 1016.0
20260904023552 86 305 2.0 6.0 0.00 0.00 0.00 34 1015.8
20260904023054 87 263 2.0 7.0 0.00 0.00 0.00 34 1015.8
20260904022551 87 254 3.0 7.0 0.00 0.00 0.00 33 1015.8
20260904022052 87 266 3.0 7.0 0.00 0.00 0.00 33 1015.7
20260904021552 87 276 3.0 7.0 0.00 0.00 0.00 33 1015.7
20260904021051 88 244 4.0 9.0 0.00 0.00 0.00 32 1015.6
20260904020551 88 252 4.0 9.0 0.00 0.00 0.00 32 1015.5
20260904020054 88 276 3.0 8.0 0.00 0.00 0.00 32 1015.5
20260904015552 88 244 4.0 8.0 0.00 0.00 0.00 31 1015.4
20260904015051 88 268 3.0 7.0 0.00 0.00 0.00 31 1015.3
20260904014615 88 290 3.0 7.0 0.00 0.00 0.00 31 1015.4
20260904014049 89 311 2.0 8.0 0.00 0.00 0.00 31 1015.3
20260904013550 89 250 5.0 10.0 0.00 0.00 0.00 31 1015.3
20260904013107 89 266 6.0 10.0 0.00 0.00 0.00 31 1015.4
20260904012550 89 234 4.0 6.0 0.00 0.00 0.00 31 1015.3
20260904012051 89 261 4.0 9.0 0.00 0.00 0.00 31 1015.3
20260904011549 90 286 5.0 9.0 0.00 0.00 0.00 30 1015.3
20260904011049 90 233 4.0 10.0 0.00 0.00 0.00 30 1015.3
20260904010549 90 242 5.0 9.0 0.00 0.00 0.00 30 1015.3
20260904010057 90 248 4.0 8.0 0.00 0.00 0.00 29 1015.2
20260904005549 90 258 4.0 9.0 0.00 0.00 0.00 30 1015.2
20260904005049 91 240 4.0 9.0 0.00 0.00 0.00 29 1015.2
20260904004548 91 263 4.0 7.0 0.00 0.00 0.00 29 1015.1
20260904004049 91 221 3.0 8.0 0.00 0.00 0.00 28 1015.1
20260904003548 91 227 4.0 8.0 0.00 0.00 0.00 28 1015.2
20260904003052 92 257 5.0 7.0 0.00 0.00 0.00 28 1015.2
20260904002548 92 257 2.0 10.0 0.00 0.00 0.00 27 1015.2
20260904002049 92 257 4.0 10.0 0.00 0.00 0.00 28 1015.2
20260904001548 92 222 6.0 11.0 0.00 0.00 0.00 27 1015.2
20260904001048 92 238 5.0 11.0 0.00 0.00 0.00 27 1015.1
20260904000548 93 223 5.0 9.0 0.00 0.00 0.00 27 1015.1
20260904000050 93 266 3.0 10.0 0.00 0.00 0.00 27 1015.0
20260903235548 93 238 5.0 10.0 0.00 0.00 0.00 28 1015.1
20260903235047 93 205 6.0 10.0 0.00 0.00 0.00 27 1015.0
20260903234548 94 223 6.0 9.0 0.00 0.00 0.00 27 1015.0
20260903234046 94 246 4.0 7.0 0.00 0.00 0.00 28 1015.0
20260903233547 93 222 3.0 7.0 0.00 0.00 0.00 27 1015.0
20260903233048 93 225 3.0 10.0 0.00 0.00 0.00 28 1015.1
20260903232545 92 252 1.0 10.0 0.00 0.00 0.00 28 1015.1
20260903232045 92 286 4.0 8.0 0.00 0.00 0.00 29 1015.1
20260903231546 93 240 1.0 8.0 0.00 0.00 0.00 30 1015.2
20260903231043 92 238 4.0 8.0 0.00 0.00 0.00 29 1015.2
20260903230543 92 292 4.0 10.0 0.00 0.00 0.00 30 1015.2
20260903230044 91 339 6.0 10.0 0.00 0.00 0.00 31 1015.2
20260903225546 91 244 6.0 11.0 0.00 0.00 0.00 31 1015.3
20260903225043 91 264 5.0 11.0 0.00 0.00 0.00 31 1015.3
20260903224542 91 256 5.0 11.0 0.00 0.00 0.00 31 1015.3
20260903224042 91 244 5.0 14.0 0.00 0.00 0.00 31 1015.4
20260903223542 91 248 9.0 14.0 0.00 0.00 0.00 30 1015.4
20260903223048 92 216 8.0 11.0 0.00 0.00 0.00 30 1015.4
20260903222544 92 271 4.0 11.0 0.00 0.00 0.00 29 1015.3
20260903222041 93 272 6.0 13.0 0.00 0.00 0.00 28 1015.4
20260903221542 94 281 6.0 13.0 0.00 0.00 0.00 28 1015.4
20260903221042 95 242 5.0 10.0 0.00 0.00 0.00 26 1015.4
20260903220540 95 247 5.0 11.0 0.00 0.00 0.00 26 1015.5
20260903220040 96 309 6.0 11.0 0.00 0.00 0.00 26 1015.5
20260903215545 96 340 3.0 7.0 0.00 0.00 0.00 26 1015.5
20260903215039 95 255 2.0 7.0 0.00 0.00 0.00 27 1015.5
20260903214542 95 115 2.0 7.0 0.00 0.00 0.00 27 1015.6
20260903214038 94 266 2.0 11.0 0.00 0.00 0.00 28 1015.6
20260903213538 94 303 5.0 11.0 0.00 0.00 0.00 28 1015.7
20260903213043 95 265 6.0 11.0 0.00 0.00 0.00 27 1015.7
20260903212536 95 223 2.0 10.0 0.00 0.00 0.00 27 1015.9
20260903212036 95 229 7.0 11.0 0.00 0.00 0.00 28 1016.0
20260903211546 95 309 4.0 12.0 0.00 0.00 0.00 27 1015.9
20260903211036 95 315 7.0 12.0 0.00 0.00 0.00 27 1015.9
20260903210535 95 257 4.0 10.0 0.00 0.00 0.00 28 1016.1
20260903210034 95 232 5.0 10.0 0.00 0.00 0.00 28 1016.2
20260903205537 96 267 6.0 13.0 0.00 0.00 0.00 27 1016.3
20260903205031 96 331 5.0 13.0 0.00 0.00 0.00 27 1016.4
20260903204530 95 310 5.0 9.0 0.00 0.00 0.00 26 1016.4
20260903204034 94 232 4.0 9.0 0.00 0.00 0.00 28 1016.5
20260903203528 95 281 5.0 9.0 0.00 0.00 0.00 27 1016.5
20260903203032 95 178 5.0 9.0 0.00 0.00 0.00 27 1016.6
20260903202528 93 303 3.0 9.0 0.00 0.00 0.00 28 1016.6
20260903202028 92 248 6.0 9.0 0.00 0.00 0.00 29 1016.8
20260903201528 92 203 0.0 9.0 0.00 0.00 0.00 27 1016.8
20260903201028 92 350 4.0 9.0 0.00 0.00 0.00 28 1016.8
20260903200526 93 254 6.0 9.0 0.00 0.00 0.00 28 1016.9
20260903200026 94 267 3.0 9.0 0.00 0.00 0.00 28 1017.0
20260903195524 93 72 1.0 9.0 0.00 0.00 0.00 28 1017.0
20260903195028 94 199 2.0 7.0 0.00 0.00 0.00 26 1017.1
20260903194523 95 48 0.0 5.0 0.00 0.00 0.00 28 1017.2
20260903194021 92 286 1.0 5.0 0.00 0.00 0.00 27 1017.3
20260903193521 92 250 1.0 7.0 0.00 0.00 0.00 26 1017.4
20260903193020 91 227 4.0 7.0 0.00 0.00 0.00 29 1017.5
20260903192520 91 281 2.0 8.0 0.00 0.00 0.00 31 1017.5
20260903192020 90 194 4.0 8.0 0.00 0.00 0.00 31 1017.6
20260903191526 90 157 4.0 8.0 0.00 0.00 0.00 31 1017.6
20260903191019 90 209 3.0 8.0 0.00 0.00 0.00 33 1017.6
20260903190519 90 339 2.0 8.0 0.00 0.00 0.00 31 1017.7
20260903190020 91 214 4.0 10.0 0.00 0.00 0.00 31 1017.8
20260903185519 92 276 5.0 10.0 0.00 0.00 0.00 30 1017.9
20260903185018 92 140 2.0 7.0 0.00 0.00 0.00 31 1018.0
20260903184516 91 252 3.0 8.0 0.00 0.00 0.00 30 1018.1
20260903184015 91 204 4.0 8.0 0.00 0.00 0.00 31 1018.2
20260903183515 90 145 1.0 7.0 0.00 0.00 0.00 30 1018.2
20260903183014 90 202 2.0 7.0 0.00 0.00 0.00 32 1018.4
20260903182512 89 244 4.0 7.0 0.00 0.00 0.00 34 1018.5
20260903182012 88 228 1.0 8.0 0.00 0.00 0.00 35 1018.5
20260903181512 88 207 4.0 8.0 0.00 0.00 0.00 35 1018.6
20260903181015 88 169 0.0 5.0 0.00 0.00 0.00 35 1018.7
20260903180512 88 169 1.0 5.0 0.00 0.00 0.00 34 1018.7
20260903180016 89 132 1.0 5.0 0.00 0.00 0.00 33 1018.8
20260903175511 88 165 2.0 8.0 0.00 0.00 0.00 34 1018.8
20260903175011 89 220 3.0 8.0 0.00 0.00 0.00 35 1018.9
20260903174511 89 118 2.0 7.0 0.00 0.00 0.00 34 1019.0
20260903174009 88 153 2.0 6.0 0.00 0.00 0.00 35 1019.0
20260903173513 87 146 0.0 5.0 0.00 0.00 0.00 35 1019.0
20260903173009 88 187 2.0 5.0 0.00 0.00 0.00 35 1019.0
20260903172509 87 303 0.0 2.0 0.00 0.00 0.00 36 1019.0
20260903172007 87 83 0.0 2.0 0.00 0.00 0.00 38 1019.1
20260903171506 86 5 0.0 6.0 0.00 0.00 0.00 38 1019.1
20260903171004 86 296 4.0 6.0 0.00 0.00 0.00 38 1019.1
20260903170503 86 281 0.0 5.0 0.00 0.00 0.00 39 1019.1
20260903170003 85 348 2.0 5.0 0.00 0.00 0.00 39 1019.1
20260903165501 85 234 0.0 5.0 0.00 0.00 0.00 41 1019.1
20260903165001 85 234 3.0 6.0 0.00 0.00 0.00 43 1019.1
20260903164608 83 184 1.0 6.0 0.00 0.00 0.00 44 1019.2
20260903164059 83 175 0.0 2.0 0.00 0.00 0.00 45 1019.2
20260903163559 81 175 0.0 4.0 0.00 0.00 0.00 46 1019.3
20260903163058 82 175 2.0 5.0 0.00 0.00 0.00 47 1019.2
20260903162559 81 163 2.0 5.0 0.00 0.00 0.00 47 1019.2
20260903162057 81 153 0.0 6.0 0.00 0.00 0.00 47 1019.2
20260903161558 82 134 2.0 6.0 0.00 0.00 0.00 46 1019.2
20260903161059 82 128 0.0 6.0 0.00 0.00 0.00 47 1019.2
20260903160557 82 132 0.0 6.0 0.00 0.00 0.00 47 1019.2
20260903160056 81 173 0.0 5.0 0.00 0.00 0.00 48 1019.2
20260903155558 80 188 1.0 6.0 0.00 0.00 0.00 49 1019.1
20260903155056 80 209 2.0 6.0 0.00 0.00 0.00 49 1019.2
20260903154554 80 129 2.0 5.0 0.00 0.00 0.00 50 1019.2
20260903154054 80 153 2.0 8.0 0.00 0.00 0.00 50 1019.3
20260903153553 79 173 4.0 8.0 0.00 0.00 0.00 50 1019.4
20260903153106 80 161 4.0 8.0 0.00 0.00 0.00 49 1019.4
20260903152556 79 206 4.0 8.0 0.00 0.00 0.00 50 1019.3
20260903152056 79 184 3.0 6.0 0.00 0.00 0.00 51 1019.4
20260903151553 79 225 2.0 7.0 0.00 0.00 0.00 50 1019.4
20260903151052 79 210 3.0 8.0 0.00 0.00 0.00 50 1019.3
20260903150552 79 261 4.0 8.0 0.00 0.00 0.00 50 1019.3
20260903150051 79 248 3.0 9.0 0.00 0.00 0.00 50 1019.4
20260903145549 79 196 4.0 9.0 0.00 0.00 0.00 51 1019.4
20260903145048 79 218 4.0 7.0 0.00 0.00 0.00 51 1019.3
20260903144548 78 249 1.0 8.0 0.00 0.00 0.00 52 1019.4
20260903144049 78 189 1.0 8.0 0.00 0.00 0.00 52 1019.4
20260903143545 77 256 3.0 9.0 0.00 0.00 0.00 52 1019.3
20260903143048 77 248 1.0 9.0 0.00 0.00 0.00 52 1019.4
20260903142547 78 215 2.0 8.0 0.00 0.00 0.00 52 1019.4
20260903142043 78 157 3.0 8.0 0.00 0.00 0.00 52 1019.4
20260903141543 77 190 3.0 7.0 0.00 0.00 0.00 53 1019.4
20260903141045 77 157 1.0 7.0 0.00 0.00 0.00 53 1019.4
20260903140540 76 142 2.0 4.0 0.00 0.00 0.00 53 1019.5
20260903140044 76 155 1.0 6.0 0.00 0.00 0.00 54 1019.5
20260903135538 76 136 2.0 6.0 0.00 0.00 0.00 55 1019.5
20260903135042 75 159 1.0 4.0 0.00 0.00 0.00 56 1019.4
20260903134537 75 188 0.0 4.0 0.00 0.00 0.00 56 1019.3
20260903134036 75 176 1.0 4.0 0.00 0.00 0.00 56 1019.3
20260903133538 74 199 1.0 4.0 0.00 0.00 0.00 56 1019.3
20260903133037 74 119 0.0 5.0 0.00 0.00 0.00 56 1019.2
20260903132535 74 119 1.0 5.0 0.00 0.00 0.00 57 1019.2
20260903132034 74 128 0.0 7.0 0.00 0.00 0.00 56 1019.2
20260903131533 74 138 1.0 7.0 0.00 0.00 0.00 56 1019.1
20260903131034 74 130 1.0 6.0 0.00 0.00 0.00 57 1019.1
20260903130529 73 142 2.0 5.0 0.00 0.00 0.00 57 1019.1
20260903130029 73 150 2.0 5.0 0.00 0.00 0.00 57 1019.1
20260903125528 73 144 2.0 7.0 0.00 0.00 0.00 57 1019.0
20260903125028 74 123 2.0 7.0 0.00 0.00 0.00 57 1018.9
20260903124530 74 153 3.0 6.0 0.00 0.00 0.00 57 1018.9
20260903124027 73 150 3.0 6.0 0.00 0.00 0.00 57 1018.9
20260903123525 73 155 3.0 7.0 0.00 0.00 0.00 57 1018.8
20260903123030 73 162 3.0 7.0 0.00 0.00 0.00 57 1018.8
20260903122524 73 140 3.0 6.0 0.00 0.00 0.00 58 1018.8
20260903122024 73 172 1.0 5.0 0.00 0.00 0.00 58 1018.7
20260903121525 73 169 2.0 8.0 0.00 0.00 0.00 58 1018.7
20260903121021 74 161 3.0 9.0 0.00 0.00 0.00 57 1018.7
20260903120520 74 155 4.0 9.0 0.00 0.00 0.00 56 1018.7
20260903120019 74 202 4.0 8.0 0.00 0.00 0.00 56 1018.5
20260903115517 74 205 3.0 10.0 0.00 0.00 0.00 56 1018.4
20260903115016 75 201 6.0 10.0 0.00 0.00 0.00 55 1018.3
20260903114515 75 192 4.0 10.0 0.00 0.00 0.00 56 1018.2
20260903114013 75 194 5.0 10.0 0.00 0.00 0.00 56 1018.1
20260903113513 75 198 4.0 7.0 0.00 0.00 0.00 55 1018.0
20260903113012 75 198 4.0 6.0 0.00 0.00 0.00 55 1018.1
20260903112513 75 142 0.0 3.0 0.00 0.00 0.00 55 1018.0
20260903112012 75 129 0.0 4.0 0.00 0.00 0.00 55 1017.9
20260903111514 76 129 1.0 6.0 0.00 0.00 0.00 55 1017.9
20260903111011 76 216 3.0 6.0 0.00 0.00 0.00 54 1017.8
20260903110511 76 219 3.0 5.0 0.00 0.00 0.00 55 1017.8
20260903110010 76 296 1.0 5.0 0.00 0.00 0.00 54 1017.9
20260903105510 76 312 2.0 5.0 0.00 0.00 0.00 54 1018.0
20260903105010 76 321 0.0 5.0 0.00 0.00 0.00 53 1017.9
20260903104510 76 215 1.0 5.0 0.00 0.00 0.00 53 1018.0
20260903104011 76 211 0.0 4.0 0.00 0.00 0.00 52 1017.9
20260903103509 77 173 0.0 4.0 0.00 0.00 0.00 52 1018.1
20260903103007 77 173 0.0 2.0 0.00 0.00 0.00 51 1018.1
20260903102508 77 173 0.0 2.0 0.00 0.00 0.00 51 1018.2
20260903102009 77 173 0.0 4.0 0.00 0.00 0.00 51 1018.1